AirNav   Jet Aviation Boston
 
 1588 users online  

2MO7 Fawn Lake Airport
Warrenton, Missouri, USA

GOING TO WARRENTON?


FAA INFORMATION EFFECTIVE 29 MARCH 2018

Location

FAA Identifier: 2MO7
Lat/Long: 38-52-00.0000N / 091-05-10.0000W
38-52.000000N / 091-05.166667W
38.8666667 / -91.0861111
(estimated)
Elevation: 750 ft. / 229 m (estimated)
Variation: 02E (1995)
From city: 5 miles NE of WARRENTON, MO
Time zone: UTC -5 (UTC -6 during Standard Time)
Zip code: 63390

Airport Operations

Airport use: Private use. Permission required prior to landing
Activation date: 07/1997
Control tower: no
ARTCC: KANSAS CITY CENTER
FSS: SAINT LOUIS FLIGHT SERVICE STATION
Attendance: UNATNDD
Segmented circle: no

Airport Communications

WX AWOS-3 at FYG (17 nm S): 121.325 (636-433-5914)

Nearby radio navigation aids

VOR radial/distance  VOR name  Freq  Var
FTZr328/11.7FORISTELL VORTAC110.8005E
STLr270/28.2ST LOUIS VORTAC117.4001E
CSXr281/34.6CARDINAL VOR/DME116.4500E

 
NDB name  Hdg/Dist  Freq  Var  ID
SULLIVAN004/38.035602EUUV ..- ..- ...-

Airport Services

Runway Information

Runway 17/35

Dimensions: 3400 x 50 ft. / 1036 x 15 m
Surface: turf
RUNWAY 17  RUNWAY 35
Traffic pattern: leftleft

Airport Ownership and Management from official FAA records

Ownership: Privately-owned
Owner: C. KOVIAK, INC.
P.O. BOX 1177
LAKE SHERWOOD, MO 63357
Phone 314-398-6399
Manager: CHARLES KOVIAK
P.O. BOX 1177
LAKE SHERWOOD, MO 63357
Phone 314-398-6399

Instrument Procedures

There are no published instrument procedures at 2MO7.

Some nearby airports with instrument procedures:

KFYG - Washington Regional Airport (17 nm S)
KSUS - Spirit of St Louis Airport (24 nm SE)
1H0 - Creve Coeur Airport (28 nm E)
H19 - Bowling Green Municipal Airport (31 nm N)
KSET - St Charles County Smartt Airport (31 nm E)
 
Loc | Ops | Rwys | IFR | FBO | Links
Com | Nav | Svcs | Stats | Notes

Kansas City Aviation Department
 
Area around 2MO7 (Fawn Lake Airport)
 
Road maps at: MapQuest Bing Google
 
Aerial photo
No photo
 
Sectional chart

 
Airport distance calculator
Flying to Fawn Lake Airport? Find the distance to fly.

From to 2MO7

Sunrise and sunset
Times for 20-Apr-2018
 Local
(UTC-5)
 Zulu
(UTC)
Morning civil twilight05:5410:54
Sunrise06:2211:22
Sunset19:4500:45
Evening civil twilight20:1301:13

Current date and time
Zulu (UTC)  20-Apr-2018 16:08:03
Local (UTC-5)  20-Apr-2018 11:08:03
 
METAR
KFYG 
17nm S 
201535Z AUTO 12003KT 10SM CLR 12/M08 A3048 RMK AO2
KSUS 
24nm SE 
201554Z 07008KT 10SM CLR 13/M09 A3048 RMK AO2 SLP325 T01331094
KSET 
31nm E 
201554Z AUTO 09014G20KT 10SM CLR 13/M06 A3050 RMK AO2 SLP327 T01281056
KSTL 
34nm E 
201551Z 11013KT 10SM FEW250 12/M09 A3050 RMK AO2 SLP329 T01221089
TAF
KSUS 
24nm SE 
201120Z 2012/2112 00000KT P6SM SKC FM201500 10006KT P6SM SKC
NOTAMs
Click for the latest NOTAMs
NOTAMs are issued by the DoD/FAA and will open in a separate window not controlled by AirNav.

 

 
 

Would you like to see your business listed on this page?

 If your business provides an interesting product or service to pilots, flight crews, aircraft, or users of the Fawn Lake Airport, you should consider listing it here.  To start the listing process, click on the button below
 
Add a business
 

Other Pages about Fawn Lake Airport

Update a link
 
Copyright © AirNav, LLC. All rights reserved. Privacy Policy  Contact